Regional Weather Roundup
Issued by NWS

Home | Current Version | Previous Version | Text Only | Print | Product List | Glossary Off
Versions: 1 2 3 4 5 6 7 8 9 10 11 12 13 14 15 16 17 18 19 20 21 22 23 24 25 26 27 28 29 30 31 32 33 34 35 36 37 38 39 40 41 42 43 44 45 46 47 48 49 50

000
ASUS43 KBIS 300020
RWRND

NORTH DAKOTA REGIONAL WEATHER ROUNDUP
NATIONAL WEATHER SERVICE BISMARCK ND
700 PM CDT MON SEP 29 2014

NOTE: "FAIR" INDICATES FEW OR NO CLOUDS BELOW 12,000 FEET WITH NO
SIGNIFICANT WEATHER AND/OR OBSTRUCTIONS TO VISIBILITY.


NDZ001>003-009>011-017-300100-
NORTHWEST NORTH DAKOTA

CITY           SKY/WX    TMP DP  RH WIND       PRES   REMARKS
WILLISTON      CLOUDY    52  46  80 SE10      29.97F
6HR MIN TEMP:  49; 6HR MAX TEMP:  53; 6HR PCP:  0.01;

MINOT          CLOUDY    52  45  77 E8        30.03F
MINOT AFB      CLOUDY    51  46  83 E9        30.03F
$$

NDZ018>021-031>035-040>046-300100-
SOUTHWEST NORTH DAKOTA

CITY           SKY/WX    TMP DP  RH WIND       PRES   REMARKS
BISMARCK       CLOUDY    58  48  69 E12       30.01F
6HR MIN TEMP:  53; 6HR MAX TEMP:  61;

DICKINSON      CLOUDY    49  47  93 SE8       29.97S
GARRISON         N/A     54  48  80 E13       30.00F
6HR MIN TEMP:  48; 6HR MAX TEMP:  55;

HETTINGER ARPT FOG       50  49  96 SE10      29.99R VSB 1
$$

NDZ004>008-012>016-024-026-027-054-300100-
NORTHEAST NORTH DAKOTA

CITY           SKY/WX    TMP DP  RH WIND       PRES   REMARKS
GRAND FORKS    PTCLDY    57  47  69 NE3       30.09F
GRND FRKS AFB  PTCLDY    54  49  82 NE5       30.10F
DEVILS LAKE    CLOUDY    52  43  71 SE12      30.07F
$$

NDZ022-023-025-028>030-036>039-047>053-300100-
SOUTHEAST NORTH DAKOTA

CITY           SKY/WX    TMP DP  RH WIND       PRES   REMARKS
FARGO          CLEAR     60  47  61 SE7       30.08F
6HR MIN TEMP:  58; 6HR MAX TEMP:  65;

JAMESTOWN      PTCLDY    53  47  79 E5        30.06F
$$




USA.gov is the U.S. government's official web portal to all federal, state and local government web resources and services.